JBU486 KRDU-KJFK

Flight info

Callsign JBU486
Flight time 0h 58m
Altitude 37000
Route HURIC4 FEBEL GUILD SAWED Q108 SIE CAMRN5
Aircraft A320/M-SDE3FGHIRWY/LB1

Departure

Time 2026-05-07 22:09
Airport Raleigh-Durham International Airport (KRDU)

Arrival

Time 2026-05-07 23:07
Airport John F. Kennedy International Airport (KJFK)
Time Latitude Longitude Altitude Speed Heading
2026-05-07 21:56 35.87373 -78.78985 435 ft 0 kts 322°
2026-05-07 22:01 35.87361 -78.78972 424 ft 4 kts 309°
2026-05-07 22:02 35.87342 -78.78948 433 ft 4 kts 315°
2026-05-07 22:02 35.87324 -78.78924 419 ft 4 kts 306°
2026-05-07 22:02 35.87312 -78.78896 419 ft 4 kts 275°
2026-05-07 22:02 35.87316 -78.78875 420 ft 1 kts 225°
2026-05-07 22:03 35.87318 -78.78871 420 ft 0 kts 225°
2026-05-07 22:04 35.87318 -78.78872 420 ft 1 kts 225°
2026-05-07 22:04 35.87306 -78.78886 419 ft 4 kts 225°
2026-05-07 22:05 35.87279 -78.78919 427 ft 7 kts 225°
2026-05-07 22:05 35.87244 -78.78963 431 ft 8 kts 225°
2026-05-07 22:05 35.87200 -78.79017 430 ft 10 kts 225°
2026-05-07 22:05 35.87144 -78.79086 424 ft 13 kts 225°
2026-05-07 22:06 35.87070 -78.79178 428 ft 16 kts 225°
2026-05-07 22:06 35.86990 -78.79277 429 ft 17 kts 225°
2026-05-07 22:06 35.86902 -78.79387 419 ft 19 kts 223°
2026-05-07 22:06 35.86807 -78.79502 431 ft 19 kts 225°
2026-05-07 22:07 35.86707 -78.79626 428 ft 22 kts 225°
2026-05-07 22:07 35.86607 -78.79747 430 ft 16 kts 225°
2026-05-07 22:07 35.86548 -78.79798 429 ft 9 kts 184°
2026-05-07 22:07 35.86519 -78.79782 432 ft 3 kts 138°
2026-05-07 22:08 35.86505 -78.79763 430 ft 3 kts 130°
2026-05-07 22:08 35.86491 -78.79736 428 ft 4 kts 105°
2026-05-07 22:08 35.86515 -78.79672 436 ft 19 kts 49°
2026-05-07 22:08 35.86796 -78.79327 429 ft 92 kts 44°
2026-05-07 22:09 35.87380 -78.78609 436 ft 142 kts 44°
2026-05-07 22:09 35.88078 -78.77744 961 ft 142 kts 44°
2026-05-07 22:09 35.88766 -78.76893 1507 ft 139 kts 44°
2026-05-07 22:09 35.89478 -78.76013 1857 ft 154 kts 45°
2026-05-07 22:10 35.90290 -78.74995 2097 ft 178 kts 47°
2026-05-07 22:10 35.91094 -78.73702 2312 ft 203 kts 56°
2026-05-07 22:10 35.91787 -78.72065 2692 ft 228 kts 66°
2026-05-07 22:10 35.92269 -78.70092 3173 ft 251 kts 77°
2026-05-07 22:11 35.92417 -78.67884 3889 ft 266 kts 90°
2026-05-07 22:11 35.92147 -78.65566 4602 ft 279 kts 105°
2026-05-07 22:11 35.91500 -78.63269 5380 ft 288 kts 109°
2026-05-07 22:11 35.91003 -78.60841 6160 ft 297 kts 100°
2026-05-07 22:12 35.90798 -78.58266 6909 ft 306 kts 91°
2026-05-07 22:12 35.90874 -78.55620 7690 ft 312 kts 87°
2026-05-07 22:12 35.90996 -78.52953 8473 ft 318 kts 87°
2026-05-07 22:12 35.91117 -78.50204 9250 ft 324 kts 88°
2026-05-07 22:13 35.91234 -78.47406 10003 ft 330 kts 88°
2026-05-07 22:13 35.91354 -78.44503 10367 ft 350 kts 88°
2026-05-07 22:13 35.91480 -78.41400 10571 ft 373 kts 88°
2026-05-07 22:13 35.91614 -78.38147 11035 ft 384 kts 88°
2026-05-07 22:14 35.91754 -78.34815 11661 ft 391 kts 88°
2026-05-07 22:14 35.91906 -78.31442 12299 ft 397 kts 87°
2026-05-07 22:14 35.92146 -78.28031 12939 ft 403 kts 85°
2026-05-07 22:14 35.92467 -78.24571 13601 ft 408 kts 83°
2026-05-07 22:15 35.92834 -78.21079 14152 ft 414 kts 83°
2026-05-07 22:15 35.93216 -78.17525 14659 ft 421 kts 83°
2026-05-07 22:15 35.93594 -78.13915 15169 ft 427 kts 83°
2026-05-07 22:15 35.93963 -78.10239 15670 ft 434 kts 83°
2026-05-07 22:16 35.94322 -78.06519 16170 ft 440 kts 83°
2026-05-07 22:16 35.94675 -78.02738 16669 ft 446 kts 83°
2026-05-07 22:16 35.95027 -77.98909 17172 ft 453 kts 83°
2026-05-07 22:16 35.95397 -77.95074 17639 ft 458 kts 80°
2026-05-07 22:17 35.96119 -77.91235 18200 ft 460 kts 69°
2026-05-07 22:17 35.97318 -77.87572 18666 ft 461 kts 58°
2026-05-07 22:17 35.98958 -77.84189 19130 ft 460 kts 49°
2026-05-07 22:17 36.00786 -77.80916 19617 ft 466 kts 49°
2026-05-07 22:18 36.02631 -77.77599 20092 ft 471 kts 49°
2026-05-07 22:18 36.06376 -77.70819 21012 ft 483 kts 49°
2026-05-07 22:18 36.08273 -77.67361 21466 ft 489 kts 49°
2026-05-07 22:19 36.10192 -77.63859 21906 ft 494 kts 49°
2026-05-07 22:19 36.12133 -77.60316 22371 ft 501 kts 50°
2026-05-07 22:19 36.14102 -77.56716 22769 ft 506 kts 50°
2026-05-07 22:19 36.16085 -77.53089 23206 ft 511 kts 50°
2026-05-07 22:20 36.18091 -77.49425 23594 ft 516 kts 50°
2026-05-07 22:20 36.20110 -77.45730 23955 ft 520 kts 50°
2026-05-07 22:20 36.22144 -77.42005 24337 ft 523 kts 50°
2026-05-07 22:20 36.24185 -77.38261 24718 ft 526 kts 50°
2026-05-07 22:21 36.26216 -77.34532 25102 ft 529 kts 49°
2026-05-07 22:21 36.28275 -77.30738 25484 ft 532 kts 50°
2026-05-07 22:21 36.30375 -77.26948 25848 ft 531 kts 45°
2026-05-07 22:21 36.32770 -77.23497 26208 ft 525 kts 35°
2026-05-07 22:22 36.35444 -77.20451 26542 ft 522 kts 31°
2026-05-07 22:22 36.38158 -77.17450 26905 ft 524 kts 31°
2026-05-07 22:22 36.40884 -77.14421 27266 ft 527 kts 31°
2026-05-07 22:22 36.43613 -77.11368 27614 ft 530 kts 32°
2026-05-07 22:23 36.46350 -77.08291 27966 ft 533 kts 32°
2026-05-07 22:23 36.49105 -77.05186 28315 ft 535 kts 31°
2026-05-07 22:23 36.51874 -77.02069 28648 ft 538 kts 31°
2026-05-07 22:23 36.54661 -76.98934 28990 ft 543 kts 31°
2026-05-07 22:24 36.57480 -76.95766 29277 ft 547 kts 31°
2026-05-07 22:24 36.60315 -76.92573 29595 ft 551 kts 31°
2026-05-07 22:24 36.63164 -76.89358 29926 ft 554 kts 31°
2026-05-07 22:24 36.65982 -76.86173 30162 ft 556 kts 31°
2026-05-07 22:25 36.68845 -76.82932 30552 ft 555 kts 31°
2026-05-07 22:25 36.71693 -76.79698 30989 ft 553 kts 31°
2026-05-07 22:25 36.74535 -76.76471 31461 ft 552 kts 31°
2026-05-07 22:25 36.77378 -76.73243 31832 ft 553 kts 31°
2026-05-07 22:26 36.80219 -76.70021 32208 ft 552 kts 31°
2026-05-07 22:26 36.83058 -76.66798 32622 ft 551 kts 31°
2026-05-07 22:26 36.85891 -76.63577 33030 ft 550 kts 32°
2026-05-07 22:26 36.88719 -76.60354 33459 ft 549 kts 32°
2026-05-07 22:27 36.91542 -76.57132 33890 ft 548 kts 32°
2026-05-07 22:27 36.94355 -76.53918 34258 ft 547 kts 32°
2026-05-07 22:27 36.97177 -76.50699 34587 ft 549 kts 32°
2026-05-07 22:27 36.99994 -76.47488 34847 ft 548 kts 32°
2026-05-07 22:28 37.02773 -76.44312 35173 ft 548 kts 32°
2026-05-07 22:28 37.05584 -76.41095 35475 ft 547 kts 32°
2026-05-07 22:28 37.08393 -76.37874 35776 ft 547 kts 32°
2026-05-07 22:28 37.11199 -76.34654 36065 ft 547 kts 33°
2026-05-07 22:29 37.14000 -76.31427 36349 ft 547 kts 33°
2026-05-07 22:29 37.16802 -76.28194 36683 ft 548 kts 33°
2026-05-07 22:29 37.19619 -76.24948 36865 ft 549 kts 33°
2026-05-07 22:30 37.25273 -76.18444 36917 ft 553 kts 33°
2026-05-07 22:30 37.29992 -76.12990 36882 ft 554 kts 33°
2026-05-07 22:31 37.35661 -76.06412 36910 ft 554 kts 33°
2026-05-07 22:31 37.41345 -75.99813 36921 ft 556 kts 33°
2026-05-07 22:32 37.47001 -75.93232 36916 ft 557 kts 33°
2026-05-07 22:32 37.52728 -75.86675 36932 ft 550 kts 27°
2026-05-07 22:32 37.55821 -75.83948 36941 ft 536 kts 19°
2026-05-07 22:33 37.59028 -75.81554 36942 ft 535 kts 18°
2026-05-07 22:33 37.65442 -75.76780 36911 ft 536 kts 19°
2026-05-07 22:34 37.71862 -75.71969 36931 ft 536 kts 19°
2026-05-07 22:34 37.78238 -75.67167 36996 ft 537 kts 19°
2026-05-07 22:35 37.84646 -75.62306 36911 ft 537 kts 20°
2026-05-07 22:35 37.90940 -75.57090 36918 ft 544 kts 24°
2026-05-07 22:36 37.97135 -75.51510 36910 ft 547 kts 25°
2026-05-07 22:36 38.03340 -75.45930 36886 ft 544 kts 24°
2026-05-07 22:37 38.09592 -75.40566 36904 ft 541 kts 21°
2026-05-07 22:37 38.15945 -75.35491 36931 ft 543 kts 20°
2026-05-07 22:38 38.22394 -75.30502 36905 ft 535 kts 14°
2026-05-07 22:38 38.25738 -75.28610 36893 ft 517 kts
2026-05-07 22:38 38.29128 -75.27331 36895 ft 500 kts 357°
2026-05-07 22:39 38.35905 -75.25859 36901 ft 494 kts 354°
2026-05-07 22:39 38.42656 -75.24453 36981 ft 496 kts 354°
2026-05-07 22:40 38.49443 -75.23025 36895 ft 493 kts 354°
2026-05-07 22:40 38.56243 -75.21594 36900 ft 495 kts 354°
2026-05-07 22:41 38.63042 -75.20170 36908 ft 496 kts 354°
2026-05-07 22:41 38.69859 -75.18009 36936 ft 524 kts 11°
2026-05-07 22:41 38.73139 -75.15807 36931 ft 542 kts 23°
2026-05-07 22:42 38.76209 -75.12913 36930 ft 550 kts 28°
2026-05-07 22:42 38.82247 -75.06966 36924 ft 551 kts 28°
2026-05-07 22:43 38.88274 -75.01027 36891 ft 536 kts 29°
2026-05-07 22:43 38.94175 -74.95223 36905 ft 532 kts 29°
2026-05-07 22:44 39.00033 -74.89452 36908 ft 529 kts 29°
2026-05-07 22:44 39.05838 -74.83722 36518 ft 530 kts 29°
2026-05-07 22:44 39.08800 -74.80801 35371 ft 542 kts 29°
2026-05-07 22:45 39.11800 -74.77797 34402 ft 550 kts 30°
2026-05-07 22:45 39.14788 -74.74665 33455 ft 555 kts 32°
2026-05-07 22:45 39.17742 -74.71445 32489 ft 557 kts 33°
2026-05-07 22:45 39.20667 -74.68185 31717 ft 554 kts 33°
2026-05-07 22:46 39.23575 -74.64933 31029 ft 552 kts 33°
2026-05-07 22:46 39.26476 -74.61715 30408 ft 545 kts 33°
2026-05-07 22:46 39.29349 -74.58561 29790 ft 540 kts 33°
2026-05-07 22:46 39.32177 -74.55488 29137 ft 534 kts 32°
2026-05-07 22:47 39.35011 -74.52429 28506 ft 528 kts 32°
2026-05-07 22:47 39.37815 -74.49408 27915 ft 522 kts 32°
2026-05-07 22:47 39.40589 -74.46410 27322 ft 516 kts 33°
2026-05-07 22:47 39.43328 -74.43438 26782 ft 510 kts 33°
2026-05-07 22:48 39.46026 -74.40497 26245 ft 504 kts 33°
2026-05-07 22:48 39.48694 -74.37580 25704 ft 499 kts 33°
2026-05-07 22:48 39.51326 -74.34691 25122 ft 494 kts 34°
2026-05-07 22:48 39.53942 -74.31815 24534 ft 491 kts 34°
2026-05-07 22:49 39.56537 -74.28963 24002 ft 487 kts 34°
2026-05-07 22:49 39.59108 -74.26137 23495 ft 482 kts 34°
2026-05-07 22:49 39.61629 -74.23374 22920 ft 478 kts 34°
2026-05-07 22:49 39.64154 -74.20605 22362 ft 473 kts 34°
2026-05-07 22:50 39.66655 -74.17862 21823 ft 469 kts 35°
2026-05-07 22:50 39.69136 -74.15139 21307 ft 465 kts 35°
2026-05-07 22:50 39.71596 -74.12433 20832 ft 461 kts 35°
2026-05-07 22:50 39.74036 -74.09741 20368 ft 457 kts 35°
2026-05-07 22:51 39.76450 -74.07069 19913 ft 454 kts 36°
2026-05-07 22:51 39.78842 -74.04414 19456 ft 450 kts 36°
2026-05-07 22:51 39.81213 -74.01780 19038 ft 447 kts 36°
2026-05-07 22:51 39.83584 -73.99194 18525 ft 442 kts 32°
2026-05-07 22:52 39.86166 -73.97117 18023 ft 433 kts 22°
2026-05-07 22:52 39.88805 -73.95256 17443 ft 428 kts 22°
2026-05-07 22:52 39.91401 -73.93421 16470 ft 422 kts 22°
2026-05-07 22:52 39.93927 -73.91631 15503 ft 416 kts 22°
2026-05-07 22:53 39.96459 -73.89840 14553 ft 411 kts 23°
2026-05-07 22:53 39.98956 -73.88073 13632 ft 406 kts 23°
2026-05-07 22:53 40.01425 -73.86326 12677 ft 400 kts 22°
2026-05-07 22:53 40.03869 -73.84675 12001 ft 384 kts 20°
2026-05-07 22:54 40.06193 -73.83211 11863 ft 356 kts 18°
2026-05-07 22:54 40.08374 -73.81889 11526 ft 339 kts 17°
2026-05-07 22:54 40.10495 -73.80631 10998 ft 330 kts 17°
2026-05-07 22:54 40.12568 -73.79406 10447 ft 324 kts 17°
2026-05-07 22:55 40.14570 -73.78210 9916 ft 318 kts 17°
2026-05-07 22:55 40.16560 -73.77005 9329 ft 312 kts 18°
2026-05-07 22:55 40.18504 -73.75818 8757 ft 305 kts 18°
2026-05-07 22:55 40.20401 -73.74652 8213 ft 299 kts 19°
2026-05-07 22:56 40.22274 -73.73499 7967 ft 293 kts 20°
2026-05-07 22:56 40.24109 -73.72370 7646 ft 290 kts 20°
2026-05-07 22:56 40.25928 -73.71253 7372 ft 286 kts 20°
2026-05-07 22:56 40.27726 -73.70146 7053 ft 283 kts 21°
2026-05-07 22:57 40.29498 -73.69055 6765 ft 280 kts 21°
2026-05-07 22:57 40.31246 -73.67978 6472 ft 276 kts 22°
2026-05-07 22:57 40.32971 -73.66915 6208 ft 272 kts 22°
2026-05-07 22:57 40.34676 -73.65861 5891 ft 269 kts 22°
2026-05-07 22:58 40.36350 -73.64828 5541 ft 268 kts 22°
2026-05-07 22:58 40.38023 -73.63795 5252 ft 265 kts 22°
2026-05-07 22:58 40.39704 -73.62756 4927 ft 261 kts 22°
2026-05-07 22:58 40.41244 -73.61627 4626 ft 250 kts 39°
2026-05-07 22:59 40.42199 -73.59826 4494 ft 235 kts 63°
2026-05-07 22:59 40.42766 -73.57909 4362 ft 224 kts 67°
2026-05-07 22:59 40.43280 -73.55986 4228 ft 223 kts 67°
2026-05-07 22:59 40.43788 -73.54064 4099 ft 222 kts 67°
2026-05-07 23:00 40.44293 -73.52147 3969 ft 222 kts 68°
2026-05-07 23:00 40.44799 -73.50243 3843 ft 220 kts 64°
2026-05-07 23:00 40.45612 -73.48646 3714 ft 204 kts 37°
2026-05-07 23:00 40.46786 -73.47760 3585 ft 190 kts 12°
2026-05-07 23:01 40.48077 -73.47634 3458 ft 185 kts 348°
2026-05-07 23:01 40.49266 -73.48212 3331 ft 183 kts 326°
2026-05-07 23:01 40.50256 -73.49267 3205 ft 183 kts 320°
2026-05-07 23:01 40.51231 -73.50349 3104 ft 184 kts 320°
2026-05-07 23:02 40.52207 -73.51432 3019 ft 184 kts 320°
2026-05-07 23:02 40.53182 -73.52515 3008 ft 184 kts 320°
2026-05-07 23:02 40.54117 -73.53672 3006 ft 185 kts 308°
2026-05-07 23:02 40.54846 -73.55069 3008 ft 186 kts 303°
2026-05-07 23:03 40.55525 -73.56514 3008 ft 186 kts 302°
2026-05-07 23:03 40.56194 -73.57968 3007 ft 186 kts 302°
2026-05-07 23:03 40.56861 -73.59427 2891 ft 186 kts 302°
2026-05-07 23:03 40.57524 -73.60880 2685 ft 185 kts 302°
2026-05-07 23:04 40.58176 -73.62307 2472 ft 179 kts 302°
2026-05-07 23:04 40.58805 -73.63688 2209 ft 172 kts 302°
2026-05-07 23:04 40.59400 -73.64993 1984 ft 161 kts 301°
2026-05-07 23:04 40.59959 -73.66221 1757 ft 151 kts 302°
2026-05-07 23:05 40.60474 -73.67353 1571 ft 142 kts 302°
2026-05-07 23:05 40.60976 -73.68455 1383 ft 138 kts 304°
2026-05-07 23:05 40.61460 -73.69519 1203 ft 134 kts 304°
2026-05-07 23:05 40.61938 -73.70569 1025 ft 134 kts 304°
2026-05-07 23:06 40.62412 -73.71616 843 ft 133 kts 305°
2026-05-07 23:06 40.62892 -73.72665 647 ft 135 kts 302°
2026-05-07 23:06 40.63372 -73.73721 477 ft 135 kts 303°
2026-05-07 23:06 40.63840 -73.74761 306 ft 131 kts 306°
2026-05-07 23:07 40.64307 -73.75792 122 ft 131 kts 306°
2026-05-07 23:07 40.64765 -73.76784 19 ft 114 kts 300°
2026-05-07 23:07 40.65078 -73.77484 20 ft 65 kts 300°
2026-05-07 23:07 40.65208 -73.77790 19 ft 19 kts 295°
2026-05-07 23:08 40.65210 -73.77922 19 ft 12 kts 231°
2026-05-07 23:08 40.65178 -73.77952 20 ft 1 kts 210°
2026-05-07 23:08 40.65177 -73.77953 20 ft 0 kts 210°
2026-05-07 23:09 40.65170 -73.77958 22 ft 4 kts 210°
2026-05-07 23:09 40.65144 -73.77979 22 ft 5 kts 211°
2026-05-07 23:09 40.65123 -73.77994 22 ft 5 kts 205°
2026-05-07 23:09 40.65085 -73.77979 23 ft 7 kts 127°
2026-05-07 23:10 40.65052 -73.77909 21 ft 11 kts 121°
2026-05-07 23:10 40.65005 -73.77805 19 ft 15 kts 120°
2026-05-07 23:10 40.64950 -73.77681 21 ft 16 kts 121°
2026-05-07 23:10 40.64887 -73.77542 20 ft 19 kts 120°
2026-05-07 23:11 40.64817 -73.77385 23 ft 20 kts 121°
2026-05-07 23:11 40.64745 -73.77225 23 ft 21 kts 121°
2026-05-07 23:11 40.64658 -73.77100 23 ft 17 kts 158°
2026-05-07 23:11 40.64538 -73.77089 22 ft 18 kts 180°
2026-05-07 23:12 40.64458 -73.77096 22 ft 10 kts 199°
2026-05-07 23:12 40.64444 -73.77166 23 ft 8 kts 281°
2026-05-07 23:12 40.64461 -73.77213 23 ft 4 kts 300°
2026-05-07 23:12 40.64474 -73.77254 23 ft 5 kts 284°
2026-05-07 23:13 40.64487 -73.77287 23 ft 5 kts 324°
2026-05-07 23:13 40.64522 -73.77291 23 ft 3 kts
2026-05-07 23:13 40.64536 -73.77290 23 ft 1 kts
2026-05-07 23:13 40.64538 -73.77290 23 ft 0 kts